Wadesboro, NC

4:01 PM EDT on July 20, 2017 (GMT -0400)
Anson County

Weather History for KAFP - November, 2012

Change the Weather History Date:

Sunday, November 18, 2012

  Actual Average (KCLT) Record (KCLT)
Temperature  
Mean Temperature 50 °F -  
Max Temperature 57 °F 62 °F 78 °F (1942)
Min Temperature 44 °F 39 °F 20 °F (2014)
Degree Days  
Heating Degree Days 14    
Moisture  
Dew Point 40 °F    
Average Humidity 70    
Maximum Humidity 82    
Minimum Humidity 57    
Precipitation  
Precipitation 0.00 in - - ()
Sea Level Pressure  
Sea Level Pressure 30.37 in    
Wind  
Wind Speed 9 mph (NNE)    
Max Wind Speed 16 mph    
Max Gust Speed 25 mph    
Visibility 10 miles    
Events Rain    
Averages and records for this station are not official NWS values.
T = Trace of Precipitation, MM = Missing Value Source: NWS Daily Summary

Daily Weather History Graph

Daily Weather History Graph

Search for Another Location

Airport or City:

Trip Planner

Search our weather history database for the weather conditions in past years. The results will help you decide how hot, cold, wet, or windy it might be!

Date:

Astronomy

Nov. 18, 2012 Rise Set
Actual Time 6:58 AM EST 5:12 PM EST
Civil Twilight 6:31 AM EST 5:39 PM EST
Nautical Twilight 6:00 AM EST 6:10 PM EST
Astronomical Twilight 5:30 AM EST 6:40 PM EST
Moon 11:26 AM EST (11/18) 10:27 PM EST (11/18)
Length of Visible Light 11h 08m
Length of Day
10h 14m
Waxing Crescent, 30% of the Moon is Illuminated
Nov 18
Waxing Crescent
Nov 20
First Quarter
Nov 28
Full
Dec 6
Last Quarter
Dec 13
New

Hourly Weather History & Observations

Time (EST) Temp. Windchill Dew Point Humidity Pressure Visibility Wind Dir Wind Speed Gust Speed Precip Events Conditions
12:15 AM 46.4 °F 42.4 °F 32.0 °F 57% 30.43 in 10.0 mi North 8.1 mph - N/A   Overcast
12:35 AM 46.4 °F 42.9 °F 32.0 °F 57% 30.43 in 10.0 mi North 6.9 mph - N/A   Scattered Clouds
12:55 AM 44.6 °F 41.4 °F 33.8 °F 66% 30.42 in 10.0 mi North 5.8 mph - N/A   Clear
1:15 AM 44.6 °F 40.7 °F 33.8 °F 66% 30.42 in 10.0 mi North 6.9 mph - N/A   Scattered Clouds
1:35 AM 44.6 °F 41.4 °F 33.8 °F 66% 30.42 in 10.0 mi NNE 5.8 mph - N/A   Mostly Cloudy
1:55 AM 44.6 °F 41.4 °F 33.8 °F 66% 30.41 in 10.0 mi NNE 5.8 mph - N/A   Overcast
2:15 AM 44.6 °F 40.7 °F 33.8 °F 66% 30.41 in 10.0 mi North 6.9 mph - N/A   Mostly Cloudy
2:35 AM 44.6 °F 40.2 °F 33.8 °F 66% 30.40 in 10.0 mi NNE 8.1 mph - N/A   Scattered Clouds
2:55 AM 44.6 °F 40.7 °F 35.6 °F 71% 30.40 in 10.0 mi North 6.9 mph - N/A   Mostly Cloudy
3:15 AM 44.6 °F 39.7 °F 35.6 °F 71% 30.41 in 10.0 mi North 9.2 mph - N/A   Overcast
3:35 AM 44.6 °F 39.2 °F 35.6 °F 71% 30.41 in 10.0 mi North 10.4 mph - N/A   Overcast
3:55 AM 44.6 °F 39.7 °F 35.6 °F 71% 30.40 in 10.0 mi North 9.2 mph - N/A   Mostly Cloudy
4:15 AM 44.6 °F 39.7 °F 37.4 °F 76% 30.41 in 10.0 mi North 9.2 mph - N/A   Mostly Cloudy
4:35 AM 44.6 °F 41.4 °F 37.4 °F 76% 30.41 in 10.0 mi North 5.8 mph - N/A   Mostly Cloudy
4:55 AM 44.6 °F 40.7 °F 37.4 °F 76% 30.41 in 10.0 mi North 6.9 mph - N/A   Mostly Cloudy
5:15 AM 44.6 °F 40.7 °F 37.4 °F 76% 30.42 in 10.0 mi NNE 6.9 mph - N/A   Scattered Clouds
5:35 AM 44.6 °F 40.2 °F 37.4 °F 76% 30.41 in 10.0 mi North 8.1 mph - N/A   Mostly Cloudy
5:55 AM 44.6 °F 39.7 °F 37.4 °F 76% 30.41 in 10.0 mi North 9.2 mph - N/A   Overcast
6:15 AM 44.6 °F 40.2 °F 37.4 °F 76% 30.41 in 10.0 mi North 8.1 mph - N/A   Overcast
6:35 AM 44.6 °F 39.7 °F 37.4 °F 76% 30.41 in 10.0 mi North 9.2 mph - N/A   Overcast
6:55 AM 46.4 °F 41.9 °F 39.2 °F 76% 30.41 in 10.0 mi North 9.2 mph - N/A   Overcast
7:15 AM 46.4 °F 41.5 °F 39.2 °F 76% 30.41 in 10.0 mi NNE 10.4 mph - N/A   Overcast
7:35 AM 46.4 °F 41.9 °F 41.0 °F 81% 30.42 in 10.0 mi NNE 9.2 mph - N/A   Overcast
7:55 AM 46.4 °F 41.5 °F 41.0 °F 81% 30.42 in 10.0 mi NNE 10.4 mph - N/A   Overcast
8:15 AM 46.4 °F 41.9 °F 41.0 °F 81% 30.42 in 10.0 mi North 9.2 mph 17.3 mph N/A   Overcast
8:35 AM 46.4 °F 40.7 °F 41.0 °F 81% 30.43 in 10.0 mi North 12.7 mph 17.3 mph N/A   Overcast
8:55 AM 46.4 °F 41.1 °F 41.0 °F 81% 30.42 in 10.0 mi North 11.5 mph 16.1 mph N/A   Overcast
9:15 AM 48.2 °F - 41.0 °F 76% 30.42 in 10.0 mi NNE 10.4 mph 17.3 mph N/A   Overcast
9:35 AM 48.2 °F - 41.0 °F 76% 30.42 in 10.0 mi NNE 11.5 mph 18.4 mph N/A   Overcast
9:55 AM 50.0 °F - 41.0 °F 71% 30.42 in 10.0 mi NNE 10.4 mph 17.3 mph N/A   Overcast
10:15 AM 50.0 °F - 41.0 °F 71% 30.42 in 10.0 mi NNE 12.7 mph 25.3 mph N/A   Overcast
10:35 AM 50.0 °F - 41.0 °F 71% 30.42 in 10.0 mi North 12.7 mph 18.4 mph N/A   Overcast
10:55 AM 50.0 °F - 42.8 °F 76% 30.42 in 10.0 mi NNE 12.7 mph 17.3 mph N/A   Overcast
11:15 AM 51.8 °F - 42.8 °F 71% 30.41 in 10.0 mi NNE 10.4 mph - N/A   Overcast
11:35 AM 51.8 °F - 42.8 °F 71% 30.39 in 10.0 mi NNE 15.0 mph - N/A   Overcast
11:55 AM 51.8 °F - 42.8 °F 71% 30.38 in 10.0 mi NNE 11.5 mph 18.4 mph N/A   Mostly Cloudy
12:15 PM 53.6 °F - 42.8 °F 67% 30.37 in 10.0 mi North 12.7 mph 19.6 mph N/A   Scattered Clouds
12:35 PM 53.6 °F - 42.8 °F 67% 30.37 in 10.0 mi NNE 11.5 mph 16.1 mph N/A   Scattered Clouds
12:55 PM 53.6 °F - 42.8 °F 67% 30.36 in 10.0 mi NNE 12.7 mph 21.9 mph N/A   Scattered Clouds
1:15 PM 53.6 °F - 42.8 °F 67% 30.35 in 10.0 mi North 12.7 mph - N/A   Overcast
1:35 PM 53.6 °F - 42.8 °F 67% 30.34 in 10.0 mi NNE 10.4 mph 17.3 mph N/A   Overcast
1:55 PM 55.4 °F - 42.8 °F 63% 30.34 in 10.0 mi NNE 10.4 mph - N/A   Overcast
2:15 PM 55.4 °F - 42.8 °F 63% 30.33 in 10.0 mi North 9.2 mph - N/A   Overcast
2:35 PM 55.4 °F - 42.8 °F 63% 30.33 in 10.0 mi NNE 12.7 mph 17.3 mph N/A   Overcast
2:55 PM 55.4 °F - 42.8 °F 63% 30.32 in 10.0 mi NNE 9.2 mph - N/A   Overcast
3:15 PM 57.2 °F - 42.8 °F 59% 30.32 in 10.0 mi North 6.9 mph 18.4 mph N/A   Mostly Cloudy
3:35 PM 57.2 °F - 42.8 °F 59% 30.31 in 10.0 mi NNE 10.4 mph 17.3 mph N/A   Mostly Cloudy
3:55 PM 57.2 °F - 42.8 °F 59% 30.31 in 10.0 mi North 9.2 mph 16.1 mph N/A   Overcast
4:15 PM 57.2 °F - 42.8 °F 59% 30.31 in 10.0 mi North 12.7 mph - N/A   Overcast
4:35 PM 55.4 °F - 42.8 °F 63% 30.31 in 10.0 mi NNE 16.1 mph 19.6 mph N/A   Overcast
4:55 PM 55.4 °F - 42.8 °F 63% 30.31 in 10.0 mi North 13.8 mph 19.6 mph N/A   Overcast
5:15 PM 55.4 °F - 41.0 °F 58% 30.32 in 10.0 mi North 13.8 mph 20.7 mph N/A   Overcast
5:35 PM 55.4 °F - 42.8 °F 63% 30.32 in 10.0 mi North 9.2 mph - N/A   Overcast
5:55 PM 55.4 °F - 41.0 °F 58% 30.32 in 10.0 mi North 12.7 mph 23.0 mph N/A   Overcast
6:15 PM 55.4 °F - 41.0 °F 58% 30.34 in 10.0 mi North 12.7 mph 21.9 mph N/A   Overcast
6:35 PM 55.4 °F - 42.8 °F 63% 30.34 in 10.0 mi North 12.7 mph 20.7 mph N/A   Overcast
6:55 PM 53.6 °F - 42.8 °F 67% 30.34 in 10.0 mi North 15.0 mph 20.7 mph N/A   Overcast
7:15 PM 51.8 °F - 44.6 °F 76% 30.34 in 7.0 mi North 13.8 mph 18.4 mph N/A   Drizzle
7:35 PM 51.8 °F - 44.6 °F 76% 30.34 in 10.0 mi North 10.4 mph - N/A   Overcast
7:55 PM 51.8 °F - 44.6 °F 76% 30.34 in 10.0 mi North 10.4 mph - N/A   Overcast
8:15 PM 50.0 °F - 44.6 °F 82% 30.34 in 7.0 mi North 9.2 mph - N/A Rain Rain
8:35 PM 51.8 °F - 44.6 °F 76% 30.34 in 10.0 mi North 9.2 mph - N/A   Overcast
8:55 PM 51.8 °F - 44.6 °F 76% 30.33 in 10.0 mi North 9.2 mph 17.3 mph N/A   Overcast
9:15 PM 51.8 °F - 44.6 °F 76% 30.33 in 10.0 mi NNE 10.4 mph - N/A   Overcast
9:35 PM 51.8 °F - 44.6 °F 76% 30.34 in 10.0 mi North 9.2 mph 16.1 mph N/A   Overcast
9:55 PM 51.8 °F - 42.8 °F 71% 30.33 in 10.0 mi NNE 11.5 mph - N/A   Overcast
10:15 PM 51.8 °F - 42.8 °F 71% 30.33 in 10.0 mi NNE 9.2 mph - N/A   Overcast
10:35 PM 51.8 °F - 42.8 °F 71% 30.33 in 10.0 mi North 8.1 mph 16.1 mph N/A   Overcast
10:55 PM 53.6 °F - 42.8 °F 67% 30.32 in 10.0 mi North 8.1 mph - N/A   Overcast
11:35 PM 51.8 °F - 42.8 °F 71% 30.32 in 10.0 mi North 10.4 mph 18.4 mph N/A   Overcast